Tracking 23611 objects as of 17-Sep-2021
HD Live streaming from Space Station
objects crossing your sky now
Track INSPIRATION-4

DMSP 5D-2 F13 DEB

Track DMSP 5D-2 F13 DEB now!
10-day predictions


NORAD ID: 40516
Int'l Code: 1995-015DC
Perigee: 818.4 km
Apogee: 861.0 km
Inclination: 98.8 °
Period: 101.6 minutes
Semi major axis: 7210 km
RCS: Unknown
Launch date: March 24, 1995
Source: United States (US)
Launch site: AIR FORCE WESTERN TEST RANGE (AFWTR)

Note: This is SATELLITE DEBRIS
aabbcc
Your satellite tracking list
Your tracking list is empty




NASA's NSSDC Master Catalog

Two Line Element Set (TLE):
1 40516U 95015DC  21260.24931197  .00000838  00000-0  43015-3 0  9998
2 40516  98.8295 259.1628 0029579 113.3014 247.1278 14.17865122335376
Source of the keplerian elements: AFSPC